Carbondale, IL

12:40 AM CDT on May 28, 2018 (GMT -0500)
Southern Illinois

Weather History for KMDH - November, 2013

Change the Weather History Date:

Thursday, November 21, 2013

  Actual Average Record
Temperature  
Mean Temperature 49 °F -  
Max Temperature 52 °F 55 °F 76 °F (1913)
Min Temperature 46 °F 34 °F 12 °F (1937)
Degree Days  
Heating Degree Days 16    
Moisture  
Dew Point 45 °F    
Average Humidity 83    
Maximum Humidity 96    
Minimum Humidity 56    
Precipitation  
Precipitation 1.00 in - - ()
Sea Level Pressure  
Sea Level Pressure 30.17 in    
Wind  
Wind Speed 6 mph (SSE)    
Max Wind Speed 13 mph    
Max Gust Speed 16 mph    
Visibility 5 miles    
Events Rain    
Averages and records for this station are not official NWS values.
T = Trace of Precipitation, MM = Missing Value Source: NWS Daily Summary

Daily Weather History Graph

Daily Weather History Graph

Search for Another Location

Airport or City:

Astronomy

Nov. 21, 2013 Rise Set
Actual Time 6:43 AM CST 4:41 PM CST
Civil Twilight 6:15 AM CST 5:10 PM CST
Nautical Twilight 5:43 AM CST 5:42 PM CST
Astronomical Twilight 5:12 AM CST 6:13 PM CST
Moon 8:17 PM CST (11/21) 9:50 AM CST (11/21)
Length of Visible Light 10h 54m
Length of Day
9h 57m
Waning Gibbous, 85% of the Moon is Illuminated
Nov 21
Waning Gibbous
Nov 25
Last Quarter
Dec 2
New
Dec 9
First Quarter
Dec 17
Full

Hourly Weather History & Observations

Time (CST) Temp. Dew Point Humidity Pressure Visibility Wind Dir Wind Speed Gust Speed Precip Events Conditions
12:52 AM 46.9 °F 36.0 °F 66% 30.15 in 10.0 mi SSE 4.6 mph - N/A   Overcast
1:52 AM 48.0 °F 35.1 °F 61% 30.14 in 10.0 mi SE 6.9 mph - N/A   Partly Cloudy
2:52 AM 50.0 °F 36.0 °F 59% 30.14 in 10.0 mi South 6.9 mph - N/A   Overcast
3:52 AM 51.1 °F 36.0 °F 56% 30.13 in 10.0 mi South 11.5 mph - N/A   Mostly Cloudy
4:52 AM 51.1 °F 37.9 °F 61% 30.12 in 10.0 mi South 12.7 mph - N/A   Overcast
5:52 AM 51.1 °F 39.9 °F 66% 30.17 in 10.0 mi South 5.8 mph - 0.00 in   Overcast
6:52 AM 50.0 °F 41.0 °F 71% 30.19 in 10.0 mi SSE 5.8 mph - 0.00 in Rain Light Rain
7:52 AM 51.1 °F 42.1 °F 71% 30.20 in 10.0 mi South 5.8 mph - 0.00 in Rain Light Rain
8:52 AM 52.0 °F 44.1 °F 74% 30.21 in 10.0 mi South 5.8 mph - 0.00 in   Overcast
9:52 AM 52.0 °F 45.0 °F 77% 30.20 in 3.0 mi South 6.9 mph - 0.00 in Rain Rain
9:56 AM 51.8 °F 46.4 °F 82% 30.20 in 2.5 mi South 6.9 mph - 0.03 in Rain Rain
10:09 AM 51.8 °F 46.4 °F 82% 30.21 in 7.0 mi SSW 4.6 mph - 0.04 in Rain Rain
10:52 AM 51.1 °F 46.9 °F 86% 30.19 in 10.0 mi South 4.6 mph - 0.07 in Rain Rain
11:50 AM 51.8 °F 48.2 °F 88% 30.17 in 2.5 mi SSW 6.9 mph - 0.10 in Rain Rain
11:52 AM 51.1 °F 48.0 °F 89% 30.18 in 2.5 mi South 6.9 mph - 0.11 in Rain Rain
12:25 PM 50.0 °F 48.2 °F 94% 30.18 in 1.8 mi South 5.8 mph - 0.15 in Rain Heavy Rain
12:35 PM 51.8 °F 48.2 °F 88% 30.17 in 2.0 mi SSE 4.6 mph - 0.19 in Rain Heavy Rain
12:48 PM 50.0 °F 48.2 °F 94% 30.17 in 1.5 mi South 4.6 mph - 0.27 in Rain Heavy Rain
12:52 PM 50.0 °F 48.9 °F 96% 30.18 in 1.5 mi SSE 5.8 mph - 0.29 in Rain Heavy Rain
1:26 PM 50.0 °F 48.2 °F 94% 30.16 in 1.0 mi SSE 4.6 mph - 0.19 in Rain Heavy Rain
1:34 PM 50.0 °F 48.2 °F 94% 30.17 in 1.5 mi South 4.6 mph - 0.23 in Rain Rain
1:44 PM 50.0 °F 48.2 °F 94% 30.16 in 2.0 mi SSE 5.8 mph - 0.26 in Rain Rain
1:52 PM 50.0 °F 48.9 °F 96% 30.17 in 2.5 mi South 5.8 mph - 0.28 in Rain Rain
2:20 PM 50.0 °F 48.2 °F 94% 30.16 in 1.8 mi SSE 8.1 mph - 0.09 in Rain Rain
2:39 PM 51.8 °F 48.2 °F 88% 30.14 in 2.0 mi SSE 8.1 mph - 0.14 in Rain Rain
2:52 PM 51.1 °F 48.9 °F 92% 30.14 in 2.5 mi SSE 9.2 mph - 0.17 in Rain Rain
3:01 PM 51.8 °F 48.2 °F 88% 30.14 in 3.0 mi SE 9.2 mph - 0.01 in Rain Light Rain
3:19 PM 51.8 °F 50.0 °F 94% 30.15 in 6.0 mi SSE 5.8 mph - 0.02 in   Overcast
3:52 PM 52.0 °F 50.0 °F 93% 30.14 in 1.0 mi SE 5.8 mph 16.1 mph 0.04 in Rain Rain
3:59 PM 51.8 °F 50.0 °F 94% 30.15 in 2.0 mi South 5.8 mph - 0.01 in Rain Rain
4:52 PM 52.0 °F 50.0 °F 93% 30.15 in 3.0 mi South 4.6 mph - 0.04 in Rain Light Rain